Date,TemperatureHighF,TemperatureAvgF,TemperatureLowF,DewpointHighF,DewpointAvgF,DewpointLowF,HumidityHigh,HumidityAvg,HumidityLow,PressureMaxIn,PressureMinIn,WindSpeedMaxMPH,WindSpeedAvgMPH,GustSpeedMaxMPH,PrecipitationSumIn
2013-1-1,30,22,10,25,10,-1,88,61,42,29.84,29.58,19,6,0,0.00
2013-1-2,19,10,2,4,-2,-9,71,58,45,30.04,29.82,24,5,0,0.00
2013-1-3,20,11,2,5,-3,-9,69,54,43,30.08,29.92,11,4,0,0.00
2013-1-4,34,23,7,24,16,2,87,75,60,29.91,29.70,20,5,0,0.00
2013-1-5,33,28,19,26,15,9,79,60,45,30.24,29.70,20,6,0,0.00
2013-1-6,34,24,15,25,17,8,87,76,63,30.20,29.90,5,1,0,0.00
2013-1-7,29,23,18,22,16,9,90,75,44,30.38,29.92,11,3,0,0.00
2013-1-8,40,30,21,23,21,13,92,69,50,30.34,30.17,12,4,0,0.00
2013-1-9,35,31,25,29,25,21,85,78,70,30.39,29.86,14,2,0,0.00
2013-1-10,41,37,31,33,25,21,89,62,51,30.50,29.88,29,10,0,0.01
2013-1-11,34,30,25,30,22,17,93,72,54,30.50,30.23,8,2,0,0.00
2013-1-12,40,36,32,39,35,30,98,97,94,30.24,30.09,6,1,0,0.08
2013-1-13,42,38,36,42,38,36,99,98,98,30.13,29.92,8,1,0,0.00
2013-1-14,56,43,35,54,37,25,99,83,50,30.18,29.82,13,3,0,0.02
2013-1-15,36,33,29,26,22,19,71,65,59,30.29,30.18,6,1,0,0.00
2013-1-16,29,27,26,26,24,20,96,88,70,30.25,29.75,11,2,0,0.00
2013-1-17,36,25,13,33,17,-2,96,75,40,30.11,29.74,14,4,0,0.26
2013-1-18,16,12,6,0,-7,-15,56,43,33,30.39,30.08,16,4,0,0.00
2013-1-19,36,25,13,24,14,0,72,61,56,30.34,29.86,8,2,0,0.00
2013-1-20,45,36,25,31,24,9,85,62,38,29.84,29.42,23,8,0,0.04
2013-1-21,24,19,11,13,3,-3,76,51,33,30.02,29.82,25,4,0,0.00
2013-1-22,17,12,4,9,0,-13,78,59,44,30.01,29.76,12,4,0,0.00
2013-1-23,4,0,-3,-13,-17,-20,56,45,37,30.08,30.00,18,6,0,0.00
2013-1-24,10,2,-4,-10,-14,-18,56,46,32,30.12,29.95,24,8,0,0.00
2013-1-25,16,10,2,-1,-5,-11,74,53,38,30.20,30.06,21,5,0,0.00
2013-1-26,18,12,7,1,-4,-8,65,50,33,30.12,29.98,18,6,0,0.00
2013-1-27,23,15,9,0,-4,-9,61,45,32,30.40,30.12,18,6,0,0.00
2013-1-28,25,18,10,18,2,-9,92,55,24,30.41,30.06,8,2,0,0.00
2013-1-29,33,25,16,28,22,14,95,88,76,30.21,30.06,5,0,0,0.10
2013-1-30,51,39,29,51,38,28,99,98,95,30.13,29.41,9,3,0,0.15
2013-1-31,54,44,28,54,35,12,99,75,43,29.40,28.80,30,16,0,0.38